CZ-6A DEB

Satellite information

Favourite Embed

Satellite Type and Status

DEBRISIN ORBIT

Key statistics

Satellite CZ-6A DEB at a glance.

Uptime

1077

Days in orbit

Revolutions

≈ 14.1

Per day

Orbit

SSO

Sun Synchronous Orbit

Inclination

98.8

Latest

Satellite identification and parameters

Extended collection of information and parameters for CZ-6A DEB.

Object identification

Identified? True

Debris? True

Object name: CZ-6A DEB

International designator: 2022-151KS

Object number (NORAD): 54542

Object ID (CCSDS): 54542

Country: PEOPLES REPUBLIC OF CHINA (PRC)

Current information (Y/N): Y

RCS size: SMALL

Orbital parameters

Period: 101.931 minutes

Inclination: 98.8283 deg

SMA: 7228.213 km

Apoapsis: 875.114 km

Periapsis: 825.043 km

RAAN: 299.0286 deg

Eccentricy: 0.00346363

Argument of periapsis: 270.7887 deg

Mean anomaly: 88.9316 deg

Mean motion: 14.12720691 rev/day

Mean motion (dot): 0.00000772 rev/day2

B* drag term: 0.00043762859 1/REarth

Two-line elements (TLE)

Creation date: Oct. 23, 2025, 2:46 a.m.

Reference frame: TEME

Reference center: EARTH

Epoch: Oct. 22, 2025, 10:39 p.m. UTC

TLE line 0: 0 CZ-6A DEB

TLE line 1: 1 54542U 22151KS 25295.94403398 .00000772 00000-0 43763-3 0 9996

TLE line 2: 2 54542 98.8283 299.0286 0034636 270.7887 88.9316 14.12720691151541

Live tracking on map

Real-time ground track for satellite CZ-6A DEB.

In-orbit conjunctions

A list of the most updated potential collisions computed for object CZ-6A DEB.

Target Orbit TCA Probability of collision Miss distance Type
CZ-6A DEB LEO 2025-01-27 14:32:32 0.0001103536 57.0 (m) DEBRIS
COSMOS 1275 DEB LEO 2024-12-25 05:21:53 0.0001158104 155.0 (m) DEBRIS
CZ-6A R/B SSO 2024-08-16 07:45:03 0.000116067 311.0 (m) ROCKET BODY

Associated space launch

Chinese satellite reported for atmospheric/ocean/environmental/spatial parameter research purposes, details TBD.

CZ-6A DEB was lifted into orbit during the mission ‘Long March 6A | Yunhai 3’, on board a Long March 6A space rocket.

The launch took place on Nov. 11, 2022, 10:52 p.m. from Launch Complex 9A.

For more information about the launch, click the button.

Launch to space Long March 6A | Yunhai 3
Long March 6A | Yunhai 3

Agency: N/A

Status: Launch Successful

Launch date: Nov. 11, 2022, 10:52 p.m. UTC

Rocket: Long March 6A

Launch pad: Launch Complex 9A

Location: Taiyuan Satellite Launch Center, People's Republic of China

...

Latest news about this satellite

There are no fresh news available about this satellite. Check back as we update our databases every day.


Newsletter sign-up

Weekly statistics, charts and insights to help you stay on top of the space industry.